www.pogodaiklimat.ru

Погода и климат >> Архив погоды >> Россия >> Краснодарский край >> Горячий Ключ


ПОГОДА в Горячем Ключе

  • Прогноз погоды в Горячем Ключе
  • Монитор погоды в Горячем Ключе

АРХИВ ПОГОДЫ в Горячем Ключе

Время (UTC), дата Ветер
(напр.,м/с)
 
Видим.   Явления Облачность Т
(С)
Тd
(С)
f
(%)
Тe
(С)
Тes
(С)
Комфортность P
(гПа)
Po
(гПа)
Тmin
(С)
Tmax
(С)
R
(мм)
R24
(мм)
S
(см)
09 20.05 З 1 10 км слаб. ливневой дождь, в посл. час гроза 10/8 600 м
[Cb cap Ac und]
+17.5 +16.3 93 +19 +20 1016.7 1009.3
12 20.05 С 1 20 км {гроза, ливн. осадки} 8/6 600 м
[Cb calv Ac cuf Ci ing]
+21.4 +16.4 73 +25 +30 комфорт 1016.1 1008.9
15 20.05 С 1 20 км 4/4 600 м
[Cb calv]
+23.8 +15.7 60 +27 +28 жарко 1015.6 1008.4 +24.1 6
18 20.05 Ю 1 20 км ясно +17.9 +16.2 90 +19 +19 1016.1 1008.8
21 20.05 штиль 0 20 км ясно +15.4 +14.5 94 +15 +15 1016.5 1009.1
00 21.05 штиль 0 4000 м дымка 9/0 2000 м
[Ac lent Cs]
+13.5 +12.8 96 +13 +13 1015.6 1008.2
03 21.05 штиль 0 500 м туман ?/? +13.8 +13.1 96 +13 +13 1016.5 1009.1 +13.5
06 21.05 С 1 20 км {туман} ясно +20.3 +15.8 75 +24 +36 комфорт 1016.9 1009.6
09 21.05 СВ 1 20 км 5/4 600 м
[Cu med, cong Ci fib]
+25.5 +15.8 55 +29 +41 душно 1016.2 1009.1
12 21.05 В 1 20 км 8/5 600 м
[Cu med, cong Ci fib]
+27.1 +14.0 45 +29 +36 жарко 1015.6 1008.5
15 21.05 С 1 20 км 8/4 600 м
[Cb calv Ac cuf Cs]
+27.0 +14.7 47 +30 +31 душно 1014.7 1007.6 +28.0
18 21.05 З 1 20 км 10/0
[Cs]
+20.8 +17.1 79 +26 +26 душно 1013.8 1006.6
21 21.05 СЗ 1 20 км 8/0 2000 м
[Ac trans Cs]
+18.7 +16.7 88 +21 +21 комфорт 1013.7 1006.4
00 22.05 штиль 0 20 км 8/0 2000 м
[Ac trans Cs]
+15.9 +14.6 92 +16 +16 1013.6 1006.2
03 22.05 З 1 20 км 10/0 2000 м
[Ac trans Cs]
+16.1 +15.1 94 +17 +17 1013.3 1005.9 +15.7
06 22.05 СЗ 1 10 км слаб. ливневой дождь 10/10 600 м
[Cb cap]
+18.4 +14.7 79 +20 +20 1014.1 1006.8
09 22.05 С 1 20 км {ливн. осадки} 8/1 1000 м
[Cu med, cong Ac cuf Cs]
+22.1 +14.9 64 +26 +38 душно 1013.7 1006.5
12 22.05 ЮЗ 3
{10}
20 км {ливн. осадки} 5/5 600 м
[Cb calv]
+24.4 +12.4 47 +26 +32 жарко 1013.9 1006.7
15 22.05 Ю 3 20 км 1/1 1000 м
[Cu med, cong]
+22.3 +12.9 55 +25 +27 комфорт 1013.6 1006.4 +25.5 0.3
18 22.05 ЮЗ 3
{10}
20 км ясно +19.6 +12.6 64 +21 +21 комфорт 1013.6 1006.3
21 22.05 ЮЗ 1 20 км ясно +18.8 +12.8 68 +21 +21 комфорт 1014.0 1006.8
00 23.05 ЮЗ 2 20 км 1/0 2000 м
[Ac trans]
+18.5 +12.8 69 +20 +20 1012.8 1005.5
03 23.05 штиль 0 20 км 3/0 2000 м
[Ac trans Ci fib]
+14.8 +13.2 90 +14 +15 1013.4 1006.0 +14.6
06 23.05 ЮЗ 2 20 км 3/1 600 м
[Cb calv Ac lent Ci ing]
+22.5 +12.0 51 +25 +33 комфорт 1012.5 1005.3
09 23.05 Ю 3
{10}
20 км 6/4 600 м
[Cb calv Ac cuf Ci ing]
+23.9 +10.7 43 +25 +33 комфорт 1012.4 1005.2
12 23.05 Ю 4 20 км 6/5 600 м
[Cu hum Ac cuf Ci ing]
+23.7 +10.3 43 +25 +29 комфорт 1012.2 1005.1
15 23.05 Ю 2
{10}
20 км 3/3 600 м
[Cb calv]
+22.9 +12.1 51 +26 +27 жарко 1011.8 1004.6 +24.6
18 23.05 ЮЗ 3
{10}
20 км 1/1 600 м
[Cb calv]
+19.4 +12.4 64 +21 +21 комфорт 1012.5 1005.2
21 23.05 Ю 2 20 км 1/1 600 м
[Cb calv]
+18.0 +12.7 71 +19 +19 1012.0 1004.7
00 24.05 ЮЗ 1 20 км 1/1 600 м
[Cb calv]
+18.1 +11.4 65 +19 +19 1011.0 1003.8
03 24.05 З 2 20 км ясно +18.7 +11.2 62 +20 +21 1010.6 1003.3 +16.7
06 24.05 Ю 2 20 км ясно +23.7 +11.2 45 +25 +35 комфорт 1010.3 1003.2
09 24.05 Ю 2 20 км 9/1 1000 м
[Cu hum Ac trans Cs]
+25.8 +11.0 39 +27 +36 жарко 1010.2 1003.1
12 24.05 Ю 2 20 км 8/1 1000 м
[Cu hum Ac trans Cs]
+26.8 +11.1 37 +28 +35 жарко 1009.0 1001.9
15 24.05 В 1 20 км 6/3 600 м
[Cu med, cong Ac trans Ci fib]
+26.8 +12.3 41 +28 +30 жарко 1008.5 1001.4 +28.0
18 24.05 штиль 0 20 км 8/3 600 м
[Cb calv Ac trans Cc]
+20.6 +15.5 73 +23 +23 комфорт 1008.2 1001.0
21 24.05 З 1 20 км 4/0 2000 м
[Ac trans Ci fib]
+18.6 +15.0 80 +21 +21 комфорт 1008.2 1001.0
00 25.05 штиль 0 20 км 8/0 2000 м
[Ac trans Cs]
+16.3 +13.4 83 +16 +16 1007.3 1000.0
03 25.05 З 1 20 км 6/0 2000 м
[Ac cast Cc]
+15.4 +13.5 88 +16 +17 1006.9 999.6 +14.7
06 25.05 С 1 10 км слаб. ливневой дождь 10/10 600 м
[Cb cap]
+18.5 +15.1 81 +20 +20 1005.9 998.7
09 25.05 С 1 10 км гроза, ливневой дождь 10/10 600 м
[Cb cap]
+17.5 +16.8 96 +19 +19 1007.6 1000.3
12 25.05 З 1 10 км гроза, ливневой дождь 10/10 600 м
[Cb cap]
+19.2 +17.1 88 +22 +22 комфорт 1007.8 1000.5
15 25.05 Ю 1 20 км {гроза, ливн. осадки} 9/6 600 м
[Cb calv Ac cuf Ci fib]
+19.4 +13.8 70 +22 +23 комфорт 1009.8 1002.6 +20.9 27
18 25.05 Ю 2
{11}
20 км {гроза, ливн. осадки} 8/5 600 м
[Cb calv Ac cuf]
+17.8 +12.8 73 +18 +18 1011.6 1004.3
21 25.05 Ю 3 20 км в посл. час ливневой дождь 9/6 600 м
[Cb calv Ac cuf]
+18.0 +12.1 68 +18 +18 1011.8 1004.6
00 26.05 Ю 3 20 км в посл. час ливневой дождь 8/5 600 м
[Cb calv Ac cuf]
+17.5 +12.3 72 +18 +18 1011.5 1004.2
03 26.05 Ю 1 20 км 8/4 600 м
[Cb calv Ac cuf Ci fib]
+17.5 +12.7 73 +19 +19 1012.6 1005.3 +16.8 1
06 26.05 ЮЗ 3 20 км 3/3 600 м
[Cb calv Ac cuf Ci ing]
+20.5 +12.9 62 +23 +29 комфорт 1013.4 1006.1
09 26.05 ЮЗ 3
{10}
20 км 6/4 600 м
[Cb calv Ac cuf Ci ing]
+21.2 +12.3 57 +23 +31 комфорт 1013.9 1006.7
12 26.05 Ю 3
{10}
20 км 6/4 600 м
[Cb calv Ac cuf Ci ing]
+20.4 +13.4 64 +23 +29 комфорт 1014.5 1007.2
15 26.05 Ю 4-11
{11}
20 км {ливн. осадки} 8/6 600 м
[Cb calv Ac cuf Ci ing]
+18.8 +12.6 67 +20 +20 1014.9 1007.6 +22.1 0.5
18 26.05 Ю 3
{11}
20 км {ливн. осадки} 6/4 600 м
[Cb calv Ac cuf Ci ing]
+18.4 +12.7 69 +19 +19 1015.8 1008.5
21 26.05 Ю 3
{10}
20 км 9/8 600 м
[Cb calv Ac cuf Ci ing]
+18.8 +12.9 69 +20 +20 1016.2 1008.9
00 27.05 З 2 20 км 10/8 600 м
[Cb calv Ac und]
+18.7 +12.9 69 +20 +20 1017.0 1009.7
03 27.05 ЮЗ 3 20 км 6/4 600 м
[Sc diur, vesp Ac lent Cc]
+18.2 +12.8 71 +19 +19 1017.4 1010.1 +18.2
06 27.05 ЮЗ 2 20 км 6/3 600 м
[Cu med, cong Ac cast Cc]
+21.0 +13.4 62 +24 +30 комфорт 1018.5 1011.3 +18.2

 

Местоположение метеостанции Горячий Ключ (Краснодарский край, Россия): широта 44.63 долгота 39.10 высота над уровнем моря 62 м.

В архиве по умолчанию представлена погода в Горячем Ключе за последнюю неделю. Архивные данные за месяц целиком и за предыдущие месяцы, начиная с января 2011 года, Вы можете получить, выбрав интересующий диапазон дат из раскрывающегося списка и нажав кнопку "Ввод!".


*Определитесь, кто Вы:
робот инопланетянин человек

Внимание! Время в таблицах - всемирное. Для получения местного времени необходимо прибавить поправку, которая равна 3 ч.

Смотрите также архив погоды в соседних городах и на ближайших метеорологических станциях:

Погода в Горном (Краснодарский край, Россия) (41 км)
Погода в Джубге (Краснодарский край, Россия) (45 км)
Погода в Краснодаре (Краснодарский край, Россия) (47 км)
Погода в Туапсе (Краснодарский край, Россия) (59 км)
Погода в Белореченске (Краснодарский край, Россия) (65 км)
Погода в Магри (Краснодарский край, Россия) (68 км)
Погода в Майкопе (Адыгея, Россия) (78 км)
Погода в Геленджике (Краснодарский край, Россия) (81 км)
Погода в Шунтуке (Адыгея, Россия) (83 км)
Погода в Усть-Лабинске (Краснодарский край, Россия) (83 км)

Пояснения к столбцам:

Ветер - указаны скорость ветра в м/с - средняя за 10 мин, порывы в срок и между сроками (в фигурных скобках) и направление, откуда дует ветер: С - северный, СВ - северо-восточный, В - восточный, ЮВ - юго-восточный, Ю - южный, ЮЗ - юго-западный, З - западный, СЗ - северо-западный.
Видимость - горизонтальная дальность видимости в метрах или километрах. При видимости от 1 до 10 км при отсутствии осадков обычно наблюдается дымка, при ухудшении видимости до 1 км и менее - туман. В сухую погоду видимость может ухудшаться дымом, пылью или мглою.
Явления - указаны атмосферные явления, наблюдавшиеся в срок или в последний час перед сроком; фигурными скобками обозначены явления, наблюдавшиеся между сроками (за 1-3 часа до срока); квадратными скобками обозначены град или гололедные отложения с указанием их диаметра в мм.
Облачность - указаны через наклонную черту общая и нижняя облачность в баллах и высота нижней границы облаков в метрах; квадратными скобками обозначены формы облаков: Ci - перистые, Cs - перисто-слоистые, Cc - перисто-кучевые, Ac - высококучевые, As - высокослоистые, Sc - слоисто-кучевые, Ns - слоисто-дождевые, Cu - кучевые, Cb - кучево-дождевые. Подробнее классификацию облаков см. в Атласе облаков (PDF).
T - Температура воздуха - температура, измеренная на высоте 2 м над землей.
Td - Температура точки росы - температура, при понижении до которой содержащийся в воздухе водяной пар достигнет насыщения.
f - Относительная влажность воздуха - влажноcть воздуха, измеренная на высоте 2 м над землей.
Te - Эффективная температура - температура, которую ощущает одетый по сезону человек в тени. Характеристика душности погоды. При расчете учитывается влияние влажности воздуха и скорости ветра на теплоощущения человека.
Tes - Эффективная температура на солнце - температура, которую ощущает человек, с поправкой на солнечный нагрев. Характеристика знойности погоды. Зависит от высоты солнца над горизонтом, облачности и скорости ветра. Ночью, в пасмурную погоду, а также при ветре 12 м/с и более поправка равна нулю.
P - Атмосферное давление - приведенное к уровню моря атмосферное давление.
Po - Атмосферное давление - измеренное на уровне метеостанции атмосферное давление.
Tmin - Минимальная температура - минимум температуры воздуха на высоте 2 м над землей.
Tmax - Максимальная температура - максимум температуры воздуха на высоте 2 м над землей.
R - Количество осадков - Количество выпавших осадков за период времени, мм. При наведении курсора мыши на число - период времени, за который выпало указанное количество осадков.
R24 - Количество осадков - Количество выпавших осадков за 24 часа, мм.
S - Снежный покров - Высота снежного покрова, см. При наведении курсора мыши на число - состояние снежного покрова и степень покрытия местности в баллах.